When you browse on this site, cookies collect data to enhance your experience and personalize the content and advertising you see.
Visit our Privacy Policy to learn more. By continuing to use the site, you agree to this use of cookies and data.
  • In United Kingdom
  • List of Countries
  • For 7 days
  • Water Temperature
  • Weather Map
  • Weather Widgets
  • user-avatar
    Login

    Hourly Weather Pecs

    Today, 5 June, Friday

    Time Temperature Precipitation Wind Pressure Humidity
    00:00 +16°C° 0 mm 3 mps 731 mmHg 68%
    01:00 +16°C° 0 mm 3 mps 731 mmHg 66%
    02:00 +16°C° 0.1 mm 3 mps 731 mmHg 71%
    03:00 +14°C° 0.1 mm 3 mps 730 mmHg 75%
    04:00 +13°C° 0.1 mm 3 mps 730 mmHg 80%
    05:00 +15°C° 0.1 mm 4 mps 730 mmHg 79%
    06:00 +17°C° 0.1 mm 4 mps 731 mmHg 78%
    07:00 +17°C° 0.1 mm 5 mps 731 mmHg 77%
    08:00 +19°C° 0.2 mm 5 mps 731 mmHg 76%
    09:00 +20°C° 0.2 mm 5 mps 731 mmHg 75%
    10:00 +21°C° 0.2 mm 5 mps 731 mmHg 74%
    11:00 +21°C° 0.9 mm 6 mps 731 mmHg 75%
    12:00 +21°C° 0.9 mm 6 mps 731 mmHg 76%
    13:00 +21°C° 0.9 mm 7 mps 732 mmHg 77%
    14:00 +20°C° 0.9 mm 6 mps 732 mmHg 82%
    15:00 +19°C° 0.9 mm 4 mps 732 mmHg 86%
    16:00 +17°C° 0.9 mm 3 mps 732 mmHg 90%
    17:00 +17°C° 0.3 mm 3 mps 732 mmHg 91%
    18:00 +16°C° 0.3 mm 2 mps 733 mmHg 93%
    19:00 +16°C° 0.3 mm 2 mps 733 mmHg 94%
    20:00 +16°C° 0.1 mm 2 mps 734 mmHg 95%
    21:00 +16°C° 0.1 mm 1 mps 734 mmHg 95%
    22:00 +15°C° 0.1 mm 1 mps 735 mmHg 95%
    23:00 +15°C° 0 mm 1 mps 735 mmHg 95%

    Tomorrow, 6 June, Saturday

    Time Temperature Precipitation Wind Pressure Humidity
    00:00 +15°C° 0 mm 1 mps 736 mmHg 95%
    01:00 +14°C° 0 mm 0 mps 736 mmHg 95%
    02:00 +13°C° 0 mm 0 mps 736 mmHg 95%
    03:00 +13°C° 0 mm 0 mps 736 mmHg 95%
    04:00 +13°C° 0 mm 0 mps 737 mmHg 95%
    05:00 +14°C° 0 mm 0 mps 737 mmHg 92%
    06:00 +16°C° 0 mm 1 mps 738 mmHg 90%
    07:00 +19°C° 0 mm 1 mps 738 mmHg 87%
    08:00 +20°C° 0 mm 1 mps 738 mmHg 82%
    09:00 +20°C° 0 mm 2 mps 738 mmHg 76%
    10:00 +23°C° 0 mm 2 mps 738 mmHg 70%
    11:00 +23°C° 0.2 mm 2 mps 738 mmHg 68%
    12:00 +24°C° 0.2 mm 2 mps 738 mmHg 66%
    13:00 +25°C° 0.2 mm 2 mps 737 mmHg 64%
    14:00 +25°C° 0.2 mm 2 mps 737 mmHg 63%
    15:00 +26°C° 0.2 mm 2 mps 737 mmHg 61%
    16:00 +26°C° 0.2 mm 2 mps 736 mmHg 60%
    17:00 +25°C° 0.2 mm 2 mps 736 mmHg 65%
    18:00 +23°C° 0.2 mm 1 mps 736 mmHg 71%
    19:00 +20°C° 0.2 mm 0 mps 735 mmHg 76%
    20:00 +19°C° 0.4 mm 0 mps 736 mmHg 80%
    21:00 +20°C° 0.4 mm 1 mps 736 mmHg 83%
    22:00 +19°C° 0.4 mm 1 mps 736 mmHg 86%
    23:00 +19°C° 1.2 mm 1 mps 736 mmHg 88%

    Day after tomorrow, 7 June, Sunday

    Time Temperature Precipitation Wind Pressure Humidity
    00:00 +18°C° 1.2 mm 1 mps 736 mmHg 91%
    01:00 +18°C° 1.2 mm 1 mps 736 mmHg 93%
    02:00 +18°C° 0.3 mm 1 mps 736 mmHg 93%
    03:00 +18°C° 0.3 mm 1 mps 736 mmHg 93%
    04:00 +16°C° 0.3 mm 0 mps 736 mmHg 94%
    05:00 +19°C° 0.3 mm 1 mps 736 mmHg 92%
    06:00 +19°C° 0.3 mm 2 mps 736 mmHg 90%
    07:00 +20°C° 0.3 mm 2 mps 737 mmHg 89%
    08:00 +21°C° 0.8 mm 2 mps 737 mmHg 82%
    09:00 +22°C° 0.8 mm 3 mps 737 mmHg 76%
    10:00 +24°C° 0.8 mm 3 mps 737 mmHg 70%
    11:00 +25°C° 0.2 mm 3 mps 737 mmHg 65%
    12:00 +26°C° 0.2 mm 3 mps 737 mmHg 60%
    13:00 +27°C° 0.2 mm 3 mps 737 mmHg 56%
    14:00 +27°C° 0.1 mm 3 mps 737 mmHg 57%
    15:00 +26°C° 0.1 mm 3 mps 736 mmHg 58%
    16:00 +26°C° 0.1 mm 3 mps 736 mmHg 59%
    17:00 +25°C° 0.2 mm 3 mps 736 mmHg 66%
    18:00 +23°C° 0.2 mm 2 mps 737 mmHg 72%
    19:00 +21°C° 0.2 mm 2 mps 737 mmHg 79%
    20:00 +20°C° 0.2 mm 2 mps 737 mmHg 81%
    21:00 +19°C° 0.2 mm 2 mps 738 mmHg 83%
    22:00 +18°C° 0.2 mm 2 mps 738 mmHg 85%
    23:00 +17°C° 0 mm 2 mps 738 mmHg 86%

    8 June, Monday

    Time Temperature Precipitation Wind Pressure Humidity
    00:00 +18°C° 0 mm 1 mps 738 mmHg 87%
    01:00 +16°C° 0 mm 1 mps 738 mmHg 88%
    02:00 +16°C° 0 mm 1 mps 738 mmHg 88%
    03:00 +16°C° 0 mm 1 mps 738 mmHg 89%
    04:00 +15°C° 0 mm 2 mps 738 mmHg 90%
    05:00 +16°C° 0 mm 2 mps 738 mmHg 88%
    06:00 +17°C° 0 mm 2 mps 738 mmHg 86%
    07:00 +19°C° 0 mm 1 mps 739 mmHg 84%
    08:00 +21°C° 0 mm 1 mps 739 mmHg 79%
    09:00 +22°C° 0 mm 1 mps 739 mmHg 74%
    10:00 +23°C° 0 mm 1 mps 739 mmHg 69%
    11:00 +24°C° 0.5 mm 1 mps 739 mmHg 67%
    12:00 +25°C° 0.5 mm 1 mps 739 mmHg 64%
    13:00 +26°C° 0.5 mm 1 mps 739 mmHg 61%
    14:00 +25°C° 0.9 mm 1 mps 738 mmHg 65%
    15:00 +24°C° 0.9 mm 1 mps 738 mmHg 69%
    16:00 +24°C° 0.9 mm 1 mps 738 mmHg 72%
    17:00 +21°C° 0.8 mm 2 mps 738 mmHg 78%
    18:00 +20°C° 0.8 mm 2 mps 738 mmHg 84%
    19:00 +19°C° 0.8 mm 2 mps 738 mmHg 90%
    20:00 +18°C° 0.5 mm 2 mps 738 mmHg 91%
    21:00 +19°C° 0.5 mm 1 mps 738 mmHg 92%
    22:00 +18°C° 0.5 mm 1 mps 738 mmHg 94%
    23:00 +18°C° 0.7 mm 1 mps 738 mmHg 94%

    9 June, Tuesday

    Time Temperature Precipitation Wind Pressure Humidity
    00:00 +16°C° 0.7 mm 1 mps 738 mmHg 95%
    01:00 +16°C° 0.7 mm 1 mps 738 mmHg 96%
    02:00 +16°C° 0.2 mm 1 mps 738 mmHg 96%
    03:00 +16°C° 0.2 mm 1 mps 738 mmHg 96%
    04:00 +15°C° 0.2 mm 1 mps 738 mmHg 97%
    05:00 +16°C° 0.3 mm 1 mps 738 mmHg 95%
    06:00 +18°C° 0.3 mm 1 mps 738 mmHg 93%
    07:00 +19°C° 0.3 mm 1 mps 739 mmHg 92%
    08:00 +20°C° 0.3 mm 1 mps 739 mmHg 91%
    09:00 +20°C° 0.3 mm 1 mps 739 mmHg 89%
    10:00 +20°C° 0.3 mm 1 mps 739 mmHg 88%
    11:00 +20°C° 0.9 mm 2 mps 739 mmHg 86%
    12:00 +20°C° 0.9 mm 3 mps 739 mmHg 85%
    13:00 +21°C° 0.9 mm 4 mps 739 mmHg 83%
    14:00 +21°C° 0.4 mm 4 mps 739 mmHg 83%
    15:00 +20°C° 0.4 mm 4 mps 739 mmHg 83%
    16:00 +20°C° 0.4 mm 4 mps 739 mmHg 83%
    17:00 +19°C° 0 mm 4 mps 739 mmHg 85%
    18:00 +18°C° 0 mm 4 mps 739 mmHg 88%
    19:00 +17°C° 0 mm 3 mps 740 mmHg 90%
    20:00 +16°C° 0 mm 3 mps 740 mmHg 92%
    21:00 +14°C° 0 mm 3 mps 740 mmHg 95%
    22:00 +13°C° 0 mm 3 mps 741 mmHg 97%
    23:00 +13°C° 0 mm 2 mps 741 mmHg 97%

    10 June, Wednesday

    Time Temperature Precipitation Wind Pressure Humidity
    00:00 +13°C° 0 mm 2 mps 741 mmHg 97%
    01:00 +12°C° 0 mm 2 mps 742 mmHg 97%
    02:00 +12°C° 0 mm 2 mps 742 mmHg 96%
    03:00 +12°C° 0 mm 2 mps 742 mmHg 96%
    04:00 +12°C° 0 mm 2 mps 742 mmHg 95%
    05:00 +13°C° 0 mm 2 mps 742 mmHg 90%
    06:00 +15°C° 0 mm 2 mps 743 mmHg 86%
    07:00 +16°C° 0 mm 2 mps 743 mmHg 81%
    08:00 +18°C° 0 mm 2 mps 743 mmHg 76%
    09:00 +20°C° 0 mm 2 mps 743 mmHg 71%
    10:00 +21°C° 0 mm 2 mps 743 mmHg 66%
    11:00 +23°C° 0 mm 2 mps 743 mmHg 64%
    12:00 +23°C° 0 mm 2 mps 743 mmHg 62%
    13:00 +24°C° 0 mm 2 mps 743 mmHg 61%
    14:00 +24°C° 0 mm 2 mps 743 mmHg 60%
    15:00 +24°C° 0 mm 1 mps 742 mmHg 60%
    16:00 +25°C° 0 mm 1 mps 742 mmHg 59%
    17:00 +23°C° 0 mm 1 mps 742 mmHg 65%
    18:00 +22°C° 0 mm 1 mps 742 mmHg 71%
    19:00 +21°C° 0 mm 1 mps 742 mmHg 76%
    20:00 +20°C° 0 mm 1 mps 742 mmHg 79%
    21:00 +19°C° 0 mm 1 mps 743 mmHg 82%
    22:00 +18°C° 0 mm 1 mps 743 mmHg 85%
    23:00 +16°C° 0 mm 1 mps 743 mmHg 86%
    Show more